Location: Sternwarte_Laufen
(47.9344°N, 12.9346°E)
Time: 06:06:00
(UTC+01:00)

ISS - Pass Details

Date: 15 November 2018
Orbit: 402 x 408 km, 51.6° (Epoch: 16 November)

Event Time Altitude Azimuth Distance (km) Brightness Sun altitude
Exits shadow 04:55:30 13° 166° (SSE) 1,285 -1.1 -23.1°
Drops below altitude 10° 04:56:01 10° 161° (SSE) 1,456 -0.8 -23.0°
Sets 04:58:18 0° 147° (SSE) 2,313 0.5 -22.6°
